Temperature
17 16 16 17 17 18 18 18 18 19 19 19 19 19 19 20 20 20 20 21 21 22 22 21 21 21 20 20 19 19 18 18 17 17 16 16 15 14 14 13 13 13 13 13
16 17 18 18 18 18 18 18 18 18 19 19 19 19 19 19 19 20 20 21 22 22 22 22 21 21 21 20 20 19 18 18 17 17 16 15 15 14 14 13 13 13 13 13
17 18 18 19 18 18 18 18 19 19 19 19 19 19 19 19 20 21 21 21 22 22 22 22 21 21 21 20 20 19 19 18 17 17 16 15 15 14 14 13 13 13 13 13
18 18 19 19 18 18 18 19 19 19 18 17 18 18 19 18 19 20 21 21 22 22 22 22 22 21 21 21 20 19 19 18 17 17 16 16 15 15 14 14 13 13 13 13
18 18 19 19 19 19 19 19 18 18 18 17 17 18 18 18 20 20 20 21 22 23 23 23 22 22 21 21 20 19 19 18 17 17 16 16 15 15 14 14 13 13 13 13
19 19 19 19 19 19 19 18 17 16 16 17 18 18 18 18 20 19 20 22 23 23 23 22 22 21 21 20 20 19 19 18 17 17 16 16 15 15 14 14 14 13 13 13
19 20 20 20 20 19 19 17 17 17 16 17 17 18 18 19 19 19 20 22 23 23 23 22 22 22 21 21 20 19 19 18 18 17 16 16 15 15 14 14 14 13 13 13
19 19 20 21 21 19 18 18 17 18 18 17 17 18 19 19 20 20 21 22 23 23 23 23 22 22 21 21 20 20 19 18 18 17 17 16 15 15 14 14 14 14 13 13
19 20 21 21 21 20 19 17 17 15 17 17 17 18 19 20 19 19 20 21 21 22 22 22 22 22 21 21 20 20 19 19 18 17 17 16 15 15 15 14 14 14 14 13
19 20 21 21 21 20 19 16 15 16 17 17 18 18 18 19 19 18 18 19 20 21 22 22 22 21 21 21 20 20 19 19 18 17 17 16 16 15 15 14 14 14 14 14
19 19 20 20 21 21 19 17 15 14 15 16 18 17 18 18 17 17 17 18 19 20 21 21 21 21 21 20 20 20 19 18 18 17 17 16 16 15 15 15 14 14 14 14
17 16 18 20 20 20 20 19 16 17 16 15 16 16 17 17 16 17 17 18 18 19 20 20 20 21 21 20 20 19 19 18 18 17 17 16 16 15 15 15 14 14 14 14
18 17 18 19 19 19 19 19 17 15 14 14 15 17 17 16 16 17 17 17 18 19 19 20 20 20 20 20 20 19 19 18 18 17 17 16 16 16 15 15 15 14 14 14
17 16 17 18 18 19 20 19 17 16 15 15 15 17 17 16 15 15 16 16 17 18 18 19 19 19 19 19 19 19 19 19 18 17 17 17 16 16 16 15 15 15 14 14
16 17 18 18 19 19 19 19 18 17 16 16 17 16 16 15 15 15 15 16 17 17 17 18 18 19 19 19 19 19 19 19 18 18 17 17 16 16 16 15 15 15 15 14
14 17 18 18 18 18 18 18 17 17 17 16 16 16 15 15 15 15 15 15 15 16 16 17 17 18 18 19 19 19 19 19 18 18 17 17 16 16 16 16 15 15 15 15
13 15 16 16 16 18 17 18 17 17 16 16 16 15 14 14 14 14 15 15 15 15 16 16 16 17 17 18 18 19 18 18 18 17 17 17 16 16 16 16 15 15 15 15
13 13 13 14 17 18 17 17 17 16 16 15 15 14 14 14 15 15 15 15 15 15 15 16 16 16 17 17 18 18 18 18 17 17 17 16 16 16 16 16 16 16 15 15
12 13 12 13 15 16 16 17 16 16 16 15 14 14 14 15 15 14 15 15 15 15 15 15 15 16 16 17 17 17 17 17 16 16 16 16 16 16 16 16 16 16 15 15
11 11 12 12 16 16 17 17 17 16 16 15 14 14 14 14 13 13 14 14 15 15 15 15 15 15 16 15 15 16 16 16 16 15 16 16 16 16 16 16 16 16 16 15
12 12 12 12 14 14 15 15 16 16 16 15 15 15 14 14 14 15 14 14 14 14 14 14 14 14 14 14 14 15 15 15 15 15 15 16 16 16 16 16 16 16 16 15
12 12 11 11 13 14 15 15 15 15 15 15 15 15 15 15 14 14 14 14 14 14 14 14 13 13 13 13 13 13 13 13 14 14 15 15 15 16 16 16 16 16 15 15
11 11 11 12 13 14 14 15 16 16 15 15 15 15 15 14 14 14 14 14 13 13 13 13 13 12 12 12 12 12 12 12 13 13 14 14 15 15 15 15 16 15 15 15
10 11 10 11 12 13 14 15 15 16 16 15 15 15 14 14 14 14 13 13 13 13 12 12 12 12 12 11 11 11 11 11 12 12 12 13 13 14 14 14 15 15 15 15
10 11 10 10 11 13 14 15 15 15 15 15 14 14 14 14 13 13 13 12 12 12 12 11 11 11 11 11 10 10 10 10 11 11 11 12 12 12 13 13 14 14 14 14
8 10 10 11 12 11 14 15 14 14 14 14 14 13 13 13 13 12 12 12 11 11 11 11 11 10 10 10 10 10 10 10 10 10 10 10 11 11 11 12 13 13 13 14
Wind_Speed
3 4 4 6 5 3 5 3 1 3 2 2 4 8 11 5 5 8 7 8 9 11 8 6 7 8 8 8 8 8 7 6 5 3 2 2 1 0 1 1 2 3 3 4
4 1 4 4 3 3 3 2 0 2 1 2 3 7 8 4 5 6 8 9 9 8 5 6 6 8 9 10 9 8 8 7 6 3 3 2 2 1 1 1 2 2 3 4
5 3 4 5 4 3 1 2 2 1 3 3 3 8 6 5 4 2 3 5 7 9 9 8 8 9 9 10 11 10 9 7 6 5 3 3 3 2 2 2 2 2 3 3
2 2 4 4 2 3 1 2 2 1 4 4 4 3 7 7 7 4 3 3 6 7 7 8 9 9 11 10 9 9 8 7 6 6 4 4 3 2 3 2 2 3 2 2
1 4 4 3 4 5 3 1 3 3 3 3 5 3 8 7 7 7 6 5 6 6 8 9 9 10 9 8 8 8 7 7 6 6 6 5 3 3 1 1 2 3 3 2
1 2 4 4 1 4 3 5 6 6 5 4 4 2 5 4 5 8 8 6 5 4 5 6 5 6 6 6 7 7 8 7 6 6 6 6 6 4 2 2 2 2 2 3
3 2 1 3 3 3 4 5 5 6 5 2 4 1 6 6 6 6 8 8 5 2 3 4 6 8 8 8 8 8 9 8 7 7 6 6 6 5 5 4 3 2 2 2
3 3 3 2 4 5 4 6 6 3 2 3 4 1 6 6 6 5 5 5 5 3 2 4 6 7 8 8 8 9 9 8 8 7 7 6 5 4 4 4 4 4 3 4
5 2 3 1 2 7 6 3 5 7 3 2 5 6 7 7 9 10 10 9 8 6 4 4 3 4 6 7 9 10 10 8 8 8 7 6 6 5 5 4 4 3 4 3
6 3 3 2 6 5 5 8 6 5 4 2 5 4 4 7 8 9 10 9 9 8 6 5 3 3 4 5 6 7 8 9 8 8 7 6 6 6 5 4 5 5 4 3
3 4 3 4 2 2 4 5 6 5 5 5 0 5 3 4 4 5 7 8 8 8 7 5 4 2 2 2 4 6 6 6 7 8 7 7 6 6 5 5 5 5 4 4
3 5 2 3 3 1 2 5 6 5 2 4 4 5 4 2 3 3 6 7 8 8 7 6 5 3 1 1 3 5 6 6 7 7 7 7 6 6 6 6 6 5 5 4
4 6 4 5 6 5 4 3 4 6 5 5 4 5 2 4 5 5 6 8 8 9 10 9 7 6 4 2 2 4 5 6 6 6 6 7 7 7 7 7 6 6 5 5
4 5 5 7 6 2 1 2 4 5 4 5 6 6 4 4 4 6 7 7 8 9 10 10 9 8 6 4 3 4 5 6 5 6 6 7 8 9 8 7 6 6 6 6
5 4 2 2 1 1 2 3 4 6 7 8 7 6 5 1 1 3 5 7 10 11 12 11 10 9 8 7 5 4 5 5 5 6 7 9 8 7 7 7 7 6 6 7
5 4 2 2 2 2 3 5 4 4 4 5 4 4 3 3 3 5 6 8 10 10 10 10 11 11 11 9 7 5 5 4 5 6 8 7 6 6 7 8 7 7 7 6
3 4 3 2 4 3 5 5 5 4 3 6 7 6 5 4 5 4 4 6 7 7 8 9 9 9 10 10 8 6 5 3 4 6 6 6 6 7 8 7 7 8 8 7
4 4 4 1 1 5 6 2 3 4 1 1 3 5 7 6 5 4 3 4 5 6 7 8 8 9 9 9 9 7 4 2 2 4 5 5 6 7 7 7 8 9 7 7
4 6 4 3 2 6 5 1 4 4 0 1 4 5 5 4 4 4 4 3 3 4 4 5 6 6 8 10 10 8 7 5 4 5 6 6 6 7 7 8 9 8 7 8
5 5 5 4 3 6 6 2 2 4 2 3 5 6 5 5 2 2 2 2 2 3 4 5 6 6 8 9 8 8 8 8 8 8 8 7 6 7 9 10 9 7 7 9
4 3 4 4 4 7 5 2 3 4 6 3 5 5 6 5 5 3 1 0 1 2 4 4 5 7 7 7 7 8 8 9 9 9 8 7 6 7 8 8 7 6 7 7
6 6 6 6 5 8 2 3 5 5 2 4 5 4 4 4 3 2 1 0 2 3 4 5 5 6 7 7 7 8 8 9 9 9 8 8 7 7 6 6 6 6 7 8
5 7 6 8 7 3 2 3 2 4 4 4 4 4 5 4 3 2 1 0 2 2 3 4 4 5 7 7 6 7 9 9 9 9 10 9 8 6 6 5 6 5 6 8
4 3 3 4 6 4 3 2 2 3 4 4 4 5 5 4 3 2 1 1 2 2 3 3 4 5 7 7 7 7 8 8 8 9 10 9 8 8 6 5 5 5 6 8
6 4 3 5 6 4 4 4 4 3 2 3 3 4 5 5 4 4 3 3 3 3 3 3 4 5 7 7 8 8 8 8 8 8 8 9 8 7 7 6 6 7 8 9
6 8 8 8 8 7 7 6 5 5 6 6 5 5 4 5 6 4 4 3 3 3 4 4 5 6 7 7 8 8 8 7 7 8 8 7 7 7 7 7 8 9 10 12
Wind_Direction
119 95 163 193 184 167 146 147 214 259 229 190 252 275 285 280 233 232 230 223 226 233 235 208 189 173 161 161 166 166 161 163 149 135 135 127 161 272 328 329 350 7 9 11
83 185 206 157 142 109 109 108 313 305 260 199 292 292 293 280 242 230 225 223 225 230 223 202 185 174 173 174 175 172 174 174 176 163 152 151 151 186 252 310 336 358 7 4
147 198 152 129 121 104 83 171 201 255 3 34 0 337 335 329 318 281 232 222 219 219 216 203 188 185 180 182 181 184 182 180 179 157 119 90 67 41 10 338 325 332 348 0
116 141 135 117 149 137 279 248 193 58 49 1 32 352 318 326 337 346 320 264 234 223 211 203 193 189 192 191 182 179 178 179 177 165 162 155 160 186 227 243 282 310 330 346
178 158 148 171 212 173 224 10 108 90 99 36 25 64 306 341 353 331 319 294 260 231 209 208 203 198 193 181 177 176 173 178 177 175 174 164 168 194 216 247 291 309 323 330
214 173 175 197 203 163 138 67 58 51 69 48 358 69 309 313 304 312 318 310 280 247 217 212 201 183 184 175 172 171 174 184 180 177 177 178 181 187 197 233 268 297 309 314
30 353 248 172 111 80 90 81 39 24 29 301 317 105 263 283 294 287 297 305 303 264 208 201 198 194 190 184 182 177 180 190 186 183 189 193 192 191 202 215 228 248 277 282
104 313 270 193 166 146 132 126 139 146 175 299 351 295 269 291 316 329 332 337 351 335 269 230 216 206 201 195 187 183 189 195 189 191 199 200 197 196 210 214 213 226 238 252
149 250 312 253 149 127 122 112 145 124 120 45 332 319 319 351 5 9 11 11 356 337 318 289 257 221 208 201 196 191 192 196 196 198 199 201 202 204 214 220 221 231 241 249
143 118 348 340 72 44 115 136 97 95 114 53 338 333 306 331 340 351 359 353 345 347 347 335 302 252 225 210 196 188 195 200 200 197 201 206 207 211 214 211 225 233 241 243
103 113 4 36 75 146 101 85 95 95 128 134 144 289 269 276 315 340 342 343 344 345 342 340 333 297 230 192 183 187 196 202 204 204 205 207 210 211 208 215 228 228 234 230
92 108 71 305 310 303 132 141 140 134 161 142 150 264 306 321 331 354 353 355 358 358 355 354 356 3 5 226 206 201 200 207 213 207 203 210 211 205 211 224 227 220 225 229
115 101 78 -0 347 7 56 97 111 116 113 141 156 246 332 22 23 20 16 9 10 12 15 14 12 5 346 307 261 229 217 219 217 202 203 211 213 212 219 226 225 216 217 223
104 98 152 183 212 228 327 137 141 127 140 183 208 223 294 350 15 16 17 14 18 21 21 19 11 359 343 322 280 256 242 224 213 203 206 215 219 218 222 223 221 216 212 214
80 112 156 211 241 208 240 238 186 184 186 185 214 203 234 239 52 27 21 26 31 25 20 15 9 1 354 343 317 276 257 234 214 205 214 225 225 221 222 222 221 217 213 218
49 111 90 346 11 330 272 265 231 211 193 192 176 213 183 127 90 53 38 39 35 22 13 8 6 4 359 348 329 303 273 244 213 215 224 228 223 220 222 225 221 216 219 220
49 113 116 257 312 346 280 250 198 188 191 171 192 203 157 123 95 72 47 44 35 18 8 5 2 357 351 345 335 320 290 254 217 229 237 232 224 226 228 227 218 218 219 214
128 108 122 152 47 236 246 309 154 135 72 196 167 150 156 150 135 95 64 54 34 15 7 0 356 355 351 352 352 346 349 340 263 255 256 248 232 235 234 225 224 224 216 212
147 133 120 125 193 282 296 190 151 142 199 193 146 146 150 146 99 30 21 34 31 10 359 349 346 348 357 4 2 8 10 0 341 308 283 268 248 242 234 228 231 225 215 216
79 93 114 132 171 240 251 256 176 114 269 223 159 161 161 133 123 258 320 1 14 11 2 355 352 3 10 0 3 18 12 4 342 317 301 280 256 245 240 237 233 224 215 220
101 98 138 161 211 259 257 274 119 156 241 186 161 160 152 167 190 205 253 347 18 12 1 2 7 8 355 348 2 10 3 350 330 320 314 306 275 253 247 243 237 224 216 217
174 164 180 156 192 250 262 120 168 206 164 138 144 152 154 171 179 183 176 26 15 8 0 2 5 354 342 346 359 359 346 328 329 331 325 319 306 283 269 247 242 226 212 214
200 192 187 190 209 249 259 204 207 155 147 162 164 171 158 164 183 188 188 329 344 346 343 345 347 341 339 341 349 341 326 326 332 337 334 324 320 307 286 257 244 235 217 219
264 179 171 241 255 246 252 230 188 165 167 180 177 175 169 181 193 197 215 264 299 313 318 326 337 339 332 329 330 320 317 325 331 331 330 328 324 320 308 283 256 240 231 229
233 186 192 248 264 276 262 224 205 196 178 177 184 188 190 186 200 205 219 245 264 284 294 304 311 310 309 316 319 317 318 326 329 325 324 326 320 314 312 296 269 255 246 235
206 187 187 223 218 201 230 225 206 201 209 205 198 208 208 195 204 208 220 235 247 266 281 294 298 298 300 306 308 309 311 317 321 322 321 319 317 312 310 307 302 276 264 263
Height
1494 1499 1503 1501 1499 1500 1503 1507 1509 1505 1500 1502 1503 1501 1494 1492 1493 1493 1494 1495 1496 1498 1500 1503 1505 1507 1510 1512 1514 1516 1517 1518 1518 1518 1518 1517 1517 1516 1515 1515 1514 1512 1511 1510
1498 1501 1496 1496 1497 1499 1502 1507 1508 1505 1500 1501 1503 1501 1493 1490 1490 1490 1490 1492 1493 1496 1498 1500 1502 1504 1507 1509 1512 1514 1516 1517 1517 1517 1517 1517 1516 1515 1515 1514 1513 1512 1511 1510
1498 1497 1494 1496 1499 1501 1503 1506 1506 1506 1502 1502 1504 1504 1497 1491 1489 1488 1489 1490 1492 1493 1495 1497 1499 1502 1505 1507 1510 1512 1514 1516 1516 1516 1516 1516 1515 1515 1514 1514 1513 1512 1511 1510
1495 1494 1495 1498 1500 1501 1506 1501 1502 1504 1510 1516 1512 1522 1505 1498 1492 1489 1489 1489 1490 1491 1493 1495 1497 1499 1502 1505 1508 1511 1513 1514 1515 1515 1515 1515 1514 1514 1514 1513 1513 1512 1511 1510
1496 1494 1496 1499 1498 1499 1502 1499 1501 1505 1511 1518 1517 1522 1515 1501 1497 1493 1490 1488 1488 1490 1491 1493 1495 1498 1501 1504 1507 1509 1511 1512 1513 1514 1514 1514 1514 1513 1513 1513 1512 1512 1511 1510
1493 1492 1493 1495 1494 1496 1498 1502 1507 1513 1519 1529 1522 1524 1521 1508 1501 1496 1491 1489 1488 1489 1490 1492 1495 1497 1499 1502 1505 1507 1509 1511 1512 1512 1513 1513 1513 1512 1512 1512 1512 1511 1511 1510
1497 1494 1492 1492 1496 1498 1501 1513 1528 1530 1536 1533 1523 1524 1521 1503 1498 1496 1493 1490 1489 1489 1490 1492 1493 1495 1497 1500 1502 1505 1507 1508 1510 1511 1511 1511 1512 1512 1511 1511 1511 1511 1510 1510
1504 1506 1493 1491 1493 1499 1503 1510 1529 1536 1538 1536 1526 1525 1513 1500 1497 1494 1492 1491 1490 1490 1491 1491 1492 1494 1496 1498 1500 1502 1505 1506 1508 1509 1509 1510 1510 1511 1510 1510 1510 1510 1510 1509
1504 1504 1491 1488 1489 1494 1504 1511 1513 1528 1532 1538 1532 1522 1507 1498 1496 1495 1494 1492 1491 1491 1491 1492 1492 1493 1494 1496 1498 1500 1502 1504 1506 1507 1508 1508 1509 1509 1509 1509 1509 1509 1509 1508
1494 1501 1494 1490 1490 1494 1498 1508 1518 1528 1539 1543 1534 1528 1524 1508 1504 1500 1498 1496 1494 1492 1492 1492 1492 1492 1493 1495 1496 1499 1500 1502 1504 1505 1506 1507 1507 1508 1508 1508 1508 1508 1508 1508
1490 1501 1501 1496 1497 1499 1503 1509 1520 1530 1531 1543 1542 1535 1514 1510 1507 1504 1502 1499 1496 1494 1492 1492 1491 1491 1492 1493 1494 1496 1498 1499 1501 1502 1503 1504 1505 1506 1506 1506 1507 1507 1507 1507
1494 1504 1510 1502 1496 1495 1496 1503 1514 1524 1532 1536 1540 1536 1509 1509 1507 1505 1503 1500 1497 1495 1493 1492 1491 1491 1491 1491 1492 1494 1495 1497 1498 1500 1501 1502 1503 1503 1504 1504 1505 1505 1505 1505
1493 1504 1517 1515 1510 1502 1501 1503 1509 1518 1530 1538 1539 1530 1509 1508 1507 1505 1503 1501 1498 1496 1494 1492 1491 1491 1490 1491 1491 1492 1493 1494 1496 1497 1498 1499 1499 1500 1501 1502 1503 1503 1503 1504
1492 1504 1513 1519 1515 1506 1504 1504 1508 1514 1527 1532 1529 1521 1512 1510 1508 1506 1504 1502 1500 1497 1495 1493 1492 1491 1490 1490 1490 1490 1491 1492 1493 1494 1494 1495 1496 1497 1498 1499 1500 1501 1501 1501
1493 1504 1503 1504 1502 1502 1503 1503 1505 1509 1513 1520 1516 1516 1511 1509 1508 1507 1505 1503 1500 1498 1496 1495 1493 1491 1489 1488 1488 1488 1488 1489 1489 1490 1491 1492 1493 1494 1495 1496 1497 1498 1498 1499
1498 1504 1503 1505 1503 1504 1505 1503 1504 1505 1506 1510 1511 1512 1507 1508 1507 1506 1505 1503 1501 1500 1499 1497 1494 1492 1490 1488 1486 1485 1485 1486 1486 1486 1487 1488 1490 1491 1491 1492 1493 1494 1495 1496
1505 1506 1511 1515 1510 1505 1510 1501 1500 1502 1502 1504 1509 1507 1506 1507 1507 1507 1506 1505 1504 1503 1501 1498 1496 1493 1491 1488 1486 1484 1483 1483 1483 1483 1484 1485 1486 1486 1487 1488 1489 1490 1490 1491
1505 1510 1517 1518 1512 1517 1506 1496 1496 1499 1501 1500 1500 1502 1503 1505 1507 1507 1507 1506 1505 1503 1502 1499 1497 1494 1492 1489 1486 1484 1482 1481 1480 1480 1481 1481 1482 1482 1483 1483 1484 1485 1486 1486
1503 1509 1518 1523 1519 1514 1503 1496 1497 1498 1501 1499 1500 1501 1503 1504 1506 1507 1507 1506 1505 1504 1502 1500 1498 1495 1492 1489 1486 1483 1481 1480 1478 1478 1477 1477 1477 1477 1478 1478 1478 1479 1480 1481
1505 1508 1517 1522 1517 1517 1502 1493 1493 1497 1503 1498 1498 1500 1502 1503 1509 1509 1507 1506 1505 1503 1502 1500 1497 1495 1491 1488 1486 1483 1480 1478 1476 1475 1474 1473 1473 1472 1472 1472 1473 1474 1474 1475
1510 1512 1516 1520 1517 1509 1496 1492 1493 1506 1503 1496 1497 1499 1500 1502 1505 1506 1505 1504 1503 1502 1500 1498 1496 1493 1490 1488 1485 1482 1479 1477 1474 1472 1471 1469 1468 1467 1467 1467 1467 1468 1468 1469
1507 1512 1515 1519 1518 1510 1493 1492 1496 1496 1494 1494 1496 1498 1500 1501 1502 1503 1503 1502 1501 1500 1498 1496 1494 1492 1489 1486 1483 1480 1477 1475 1472 1469 1467 1464 1463 1462 1461 1460 1460 1461 1462 1462
1503 1502 1503 1504 1502 1494 1491 1491 1492 1492 1493 1494 1495 1497 1498 1499 1500 1500 1500 1500 1499 1498 1496 1494 1492 1490 1487 1484 1481 1478 1475 1472 1469 1466 1463 1460 1458 1456 1455 1454 1453 1454 1454 1455
1497 1495 1497 1497 1492 1490 1489 1489 1490 1491 1492 1493 1494 1495 1496 1497 1497 1497 1497 1497 1496 1495 1493 1492 1489 1487 1485 1482 1479 1476 1473 1469 1466 1462 1459 1456 1453 1450 1449 1448 1447 1446 1446 1447
1493 1493 1495 1494 1489 1487 1486 1487 1488 1489 1490 1491 1492 1493 1493 1494 1494 1494 1494 1493 1493 1492 1490 1488 1486 1484 1482 1479 1476 1473 1469 1466 1462 1459 1455 1452 1449 1446 1443 1442 1441 1440 1439 1440
1486 1486 1489 1487 1482 1483 1482 1484 1485 1486 1486 1487 1488 1489 1489 1490 1490 1490 1490 1490 1489 1488 1486 1485 1483 1480 1478 1475 1472 1469 1466 1463 1458 1454 1451 1448 1444 1441 1438 1435 1433 1432 1432 1432